Weather History for Jackson, TN

Change the Weather History Date:

Tuesday, November 20, 2012

  Actual Average Record
Temperature  
Mean Temperature 55 °F 48 °F  
Max Temperature 70 °F 59 °F 77 °F (1979)
Min Temperature 40 °F 37 °F 20 °F (1968)
Degree Days  
Heating Degree Days 10 17  
Month to date heating degree days 316 265  
Since 1 July heating degree days 590 479  
Cooling Degree Days 0 0  
Month to date cooling degree days 0 2  
Year to date cooling degree days 1931 1693  
Growing Degree Days 6 (Base 50)    
Moisture  
Dew Point 44 °F    
Average Humidity 69    
Maximum Humidity 96    
Minimum Humidity 42    
Precipitation  
Precipitation 0.00 in 0.18 in 1.75 in (1973)
Month to date precipitation 1.71 3.08  
Year to date precipitation 37.18 46.10  
Snow  
Snow 0.00 in 0.00 in T in (2008)
Month to date snowfall 0.0 0.1  
Since 1 July snowfall 0.0 0.1  
Since 1 September snowfall 0.0 0.1  
Snow Depth 0.00 in    
Sea Level Pressure  
Sea Level Pressure 30.14 in    
Wind  
Wind Speed 4 mph (WSW)    
Max Wind Speed 12 mph    
Max Gust Speed 17 mph    
Visibility 10 miles    
Events      
T = Trace of Precipitation, MM = Missing Value Source: NWS Daily Summary

Daily Weather History Graph

Daily Weather History Graph

Search for Another Location

Airport:

Trip Planner

Search our weather history database for the weather conditions in past years. The results will help you decide how hot, cold, wet, or windy it might be!

Date:

Astronomy

Nov. 20, 2012 Rise Set
Actual Time 6:36 AM CST 4:45 PM CST
Civil Twilight 6:09 AM CST 5:13 PM CST
Nautical Twilight 5:38 AM CST 5:44 PM CST
Astronomical Twilight 5:07 AM CST 6:14 PM CST
Moon 12:18 PM CST (11/20) No Moon Set
Length of Visible Light 11h 03m
Length of Day
10h 09m
First Quarter, 51% of the Moon is Illuminated
Nov 20
First Quarter
Nov 28
Full
Dec 6
Last Quarter
Dec 13
New
Dec 19
First Quarter

Hourly Weather History & Observations

Time (CST) Temp. Windchill Dew Point Humidity Pressure Visibility Wind Dir Wind Speed Gust Speed Precip Events Conditions
12:53 AM 42.1 °F 40.2 °F 39.0 °F 89% 30.17 in 10.0 mi SSW 3.5 mph - N/A   Partly Cloudy
1:53 AM 45.0 °F 43.5 °F 41.0 °F 86% 30.17 in 10.0 mi SSW 3.5 mph - N/A   Overcast
2:53 AM 45.0 °F - 42.1 °F 90% 30.17 in 10.0 mi Calm Calm - N/A   Overcast
3:53 AM 46.9 °F - 43.0 °F 86% 30.18 in 10.0 mi Calm Calm - N/A   Overcast
4:53 AM 46.9 °F - 43.0 °F 86% 30.18 in 10.0 mi SSW 3.5 mph - N/A   Overcast
5:53 AM 48.9 °F - 44.1 °F 83% 30.18 in 10.0 mi Calm Calm - N/A   Overcast
6:53 AM 48.0 °F - 43.0 °F 83% 30.18 in 10.0 mi Calm Calm - N/A   Mostly Cloudy
7:53 AM 53.1 °F - 44.1 °F 71% 30.19 in 10.0 mi SSW 4.6 mph - N/A   Mostly Cloudy
8:53 AM 59.0 °F - 42.1 °F 53% 30.18 in 10.0 mi SW 6.9 mph - N/A   Clear
9:53 AM 64.0 °F - 42.1 °F 45% 30.17 in 10.0 mi WSW 11.5 mph - N/A   Clear
10:53 AM 66.0 °F - 43.0 °F 43% 30.15 in 10.0 mi West 8.1 mph - N/A   Clear
11:53 AM 66.9 °F - 45.0 °F 45% 30.12 in 10.0 mi WSW 9.2 mph - N/A   Clear
12:53 PM 69.1 °F - 46.9 °F 45% 30.10 in 10.0 mi West 10.4 mph - N/A   Clear
1:53 PM 69.1 °F - 46.0 °F 44% 30.08 in 10.0 mi WNW 6.9 mph - N/A   Clear
2:53 PM 69.1 °F - 46.9 °F 45% 30.07 in 10.0 mi WSW 6.9 mph - N/A   Partly Cloudy
3:53 PM 66.9 °F - 48.0 °F 51% 30.07 in 10.0 mi WSW 6.9 mph - N/A   Clear
4:53 PM 62.1 °F - 48.0 °F 60% 30.07 in 10.0 mi WSW 4.6 mph - N/A   Clear
5:53 PM 57.0 °F - 46.9 °F 69% 30.09 in 10.0 mi West 3.5 mph - N/A   Mostly Cloudy
6:53 PM 54.0 °F - 46.9 °F 77% 30.11 in 10.0 mi SW 3.5 mph - N/A   Clear
7:53 PM 50.0 °F - 46.0 °F 86% 30.12 in 10.0 mi SSW 3.5 mph - N/A   Clear
8:53 PM 48.0 °F - 45.0 °F 89% 30.12 in 10.0 mi Calm Calm - N/A   Clear
9:53 PM 46.9 °F - 45.0 °F 93% 30.12 in 10.0 mi Calm Calm - N/A   Clear
10:53 PM 46.0 °F - 43.0 °F 89% 30.13 in 10.0 mi Calm Calm - N/A   Clear
11:53 PM 46.9 °F - 44.1 °F 90% 30.14 in 10.0 mi NW 3.5 mph - N/A   Clear